Flag for U.S.A. Weather past 2 weeks in Burbank, California, U.S.A.

Now
58 °F

Overcast.


Feels Like: 57 °F
Forecast: 56 / 74 °F
Wind: 6 mph from Southeast

Location: Burbank-Glendale-Pasadena Airport

Current Time: May 25, 2015 at 9:05:47 AM

Latest Report: May 25, 2015 at 7:53 AM


Visibility: 10 mi

Pressure: 29.96 "Hg

Humidity: 78%

Dew point: 51 °F

Location of BurbankLocation

Historic Weather in Burbank — Graph

°F

Burbank temperature yesterday

Maximum temperature yesterday: 70 °F (at 2:53 PM)
Minimum temperature yesterday: 58 °F (at 12:53 AM)
Average temperature yesterday: 63 °F

Past Weeks' High & Low Weather Summary

 TemperatureHumidityPressure
High81 °F (May 11, 12:53 PM)89% (May 14, 10:53 PM)30.06 "Hg (May 14, 10:53 PM)
Low52 °F (May 15, 1:53 AM)23% (May 11, 3:53 PM)29.76 "Hg (May 11, 5:53 PM)
Average62 °F63%29.92 "Hg
* Reported May 10 7:53 AM — May 25 7:53 AM, Burbank, Weather by CustomWeather, © 2015

Note: Actual official high and low records may vary slightly from our data, if they occured in-between our weather recording intervals... More about our weather records

Advertising

Burbank weather history for previous 24 hours

 ConditionsComfort  
Time TempWeatherWind HumidityBarometerVisibility
7:53 AM
Mon, May 25
58 °FOvercast.6 mph78%29.96 "Hg10 mi
6:53 AM56 °FPartly sunny.6 mph84%29.94 "Hg10 mi
5:53 AM55 °FClear.3 mph83%29.92 "Hg10 mi
4:53 AM56 °FClear.No wind75%29.90 "Hg10 mi
3:53 AM56 °FClear.No wind75%29.90 "Hg10 mi
2:53 AM58 °FClear.No wind75%29.92 "Hg10 mi
1:53 AM59 °FClear.5 mph75%29.92 "Hg10 mi
12:53 AM59 °FClear.No wind75%29.92 "Hg10 mi
11:53 PM
Sun, May 24
60 °FClear.3 mph69%29.93 "Hg10 mi
10:53 PM60 °FClear.3 mph69%29.93 "Hg10 mi
9:53 PM62 °FClear.6 mph60%29.93 "Hg10 mi
8:53 PM63 °FSunny.6 mph58%29.93 "Hg10 mi
7:53 PM65 °FSunny.7 mph54%29.91 "Hg10 mi
6:53 PM68 °FSunny.7 mph53%29.90 "Hg10 mi
5:53 PM69 °FSunny.9 mph53%29.90 "Hg10 mi
4:53 PM70 °FSunny.8 mph49%29.91 "Hg10 mi
3:53 PM69 °FPassing clouds.8 mph51%29.92 "Hg10 mi
2:53 PM70 °FPartly sunny.7 mph49%29.94 "Hg10 mi
1:53 PM69 °FPartly sunny.10 mph51%29.95 "Hg10 mi
12:53 PM68 °FPartly sunny.7 mph53%29.96 "Hg10 mi
11:53 AM66 °FPartly sunny.5 mph56%29.98 "Hg10 mi
10:53 AM64 °FPartly sunny.6 mph61%29.98 "Hg10 mi
9:53 AM61 °FMostly cloudy.5 mph67%29.99 "Hg10 mi
Weather by CustomWeather, © 2015

See weather overviewHow to use our weather pages